Meteo Giornale » Osservazioni meteo Danimarca » Vamdrup

ore: 14:50 - Osservazioni Meteo Vamdrup
Lat. 55° 26' N Lon. 9° 20' E Alt. 44 metri s.l.m.

nuvoloso

20 °C

Nuvoloso

Temp. 24 Ore

13 °C

20 °C

Ovest

29.6 Km/h

Dew point 13 °C

Umidità 64 %

Visibilità  10 Km

Il sole sorge alle ore 06:28

Il sole tramonta alle ore 20:17

Data e Ora Cielo e Fenomeni T °C DP °C Um. % Pres. hPa Vis. km Vento km/h
Oggi h: 14:50 nuvoloso Nuvoloso 20 13 64 1013 10 O 29.6
Oggi h: 13:50 molto_nuvoloso Molto Nuvoloso 19 14 72 1013 10 O 20.3
Oggi h: 12:50 nuvoloso_piovaschi Pioggia 17 15 88 1013 10 O 14.8
Oggi h: 11:50 nuvoloso_piovaschi Pioggia 17 15 88 1012 10 O 16.7
Oggi h: 10:50 molto_nuvoloso Molto Nuvoloso 18 15 82 1012 10 O 14.8
Oggi h: 09:50 nuvoloso Nuvoloso 16 15 93 1012 10 O/SO 11.1
Oggi h: 09:20 molto_nuvoloso Pioggia nelle vicinanze 16 15 93 1011 10 O/SO 9.3
Oggi h: 08:50 nuvoloso_piovaschi Pioggia 16 15 93 1011 10 SO 11.1
Oggi h: 07:50 poco_nuvoloso Poco Nuvoloso 15 14 93 1011 10 SO 7.4
Oggi h: 07:20 sereno Sereno 15 14 93 1011 11 SO 7.4
Oggi h: 06:50 sereno Sereno 13 13 100 1011 10 SO 7.4
Oggi h: 06:20 sereno Sereno 13 12 93 1010 10 SO 7.4
Oggi h: 05:50 sereno Sereno 13 13 100 1010 10 N 5.5
Oggi h: 05:20 sereno Sereno 14 13 93 1010 10 O 9.3
Oggi h: 04:50 sereno Sereno 14 13 93 1010 10 O 7.4
Oggi h: 04:20 sereno Sereno 14 13 93 1010 10 N 5.5
Oggi h: 03:50 sereno Sereno 14 13 93 1010 10 O 7.4
Oggi h: 03:20 sereno Sereno 14 14 100 1009 10 O 9.3
Oggi h: 02:50 sereno Sereno 15 14 93 1009 10 O 13
Oggi h: 02:20 sereno Sereno 15 14 93 1009 10 O 13
Oggi h: 01:50 sereno Sereno 14 14 100 1009 0 O/SO 11.1
Oggi h: 01:20 sereno Sereno 14 13 93 1009 0 O/SO 9.3
Oggi h: 00:50 sereno Sereno 14 13 93 1008 0 S/SO 7.4
Oggi h: 00:20 sereno Sereno 14 13 93 1008 0 SO 7.4
Ieri h: 23:50 sereno Sereno 14 14 100 1008 0 S/SO 9.3
Ieri h: 23:20 sereno Sereno 14 13 93 1008 0 N 5.5
Ieri h: 22:50 sereno Sereno 15 14 93 1008 0 O 7.4
Ieri h: 22:20 sereno Sereno 15 14 93 1008 0 O/SO 9.3
Ieri h: 21:50 sereno Sereno 15 14 93 1008 0 SO 13
Ieri h: 21:20 sereno Sereno 15 14 93 1007 0 SO 9.3
Ieri h: 20:50 sereno Sereno 15 14 93 1007 0 S/SO 7.4
Ieri h: 20:20 sereno Sereno 16 14 87 1007 0 S/SO 9.3
Ieri h: 19:50 sereno Sereno 17 14 82 1007 0 SO 11.1
Ieri h: 19:20 sereno Sereno 18 14 77 1006 0 O/SO 14.8
Ieri h: 18:50 sereno Sereno 18 14 77 1006 0 O/SO 16.7
Ieri h: 18:20 sereno Sereno 18 15 82 1006 0 O/SO 14.8
Ieri h: 17:50 sereno Sereno 18 15 82 1006 0 SO 14.8
Ieri h: 17:20 sereno Sereno 18 15 82 1006 0 SO 14.8
Ieri h: 16:50 molto_nuvoloso Molto Nuvoloso 17 16 93 1006 10 S/SO 14.8
Ieri h: 15:50 molto_nuvoloso Molto Nuvoloso 18 16 88 1006 10 S/SO 14.8